DW6169 Weather Reports


Display with metric or nautical units.
time (UTC)temp
F
wind
direction
speed
MPH
gust
MPH
rain 1hr
in
rain 24hr
in
rain mn
in
humidity
%
barometer
mb
20260510153111 91 141 3.0 11.0 0.00 0.00 0.00 63 1017.6
20260510152600 91 0 1.0 8.0 0.00 0.00 0.00 64 1017.5
20260510152100 91 187 1.0 7.0 0.00 0.00 0.00 64 1017.5
20260510151631 91 0 1.0 7.0 0.00 0.00 0.00 64 1017.5
20260510151059 90 0 1.0 7.0 0.00 0.00 0.00 63 1017.5
20260510150559 90 76 0.0 5.0 0.00 0.00 0.00 63 1017.5
20260510145559 90 0 0.0 5.0 0.00 0.00 0.00 62 1017.6
20260510145100 90 239 1.0 8.0 0.00 0.00 0.00 61 1017.5
20260510144618 90 186 3.0 8.0 0.00 0.00 0.00 61 1017.5
20260510144059 90 139 1.0 8.0 0.00 0.00 0.00 62 1017.6
20260510143558 90 140 0.0 4.0 0.00 0.00 0.00 64 1017.6
20260510143112 89 0 1.0 5.0 0.00 0.00 0.00 66 1017.4
20260510142600 89 240 1.0 5.0 0.00 0.00 0.00 67 1017.3
20260510142100 88 0 0.0 6.0 0.00 0.00 0.00 68 1017.1
20260510141602 88 213 1.0 8.0 0.00 0.00 0.00 68 1017.0
20260510141059 88 0 1.0 8.0 0.00 0.00 0.00 68 1017.0
20260510140557 88 226 1.0 7.0 0.00 0.00 0.00 69 1017.1
20260510140058 88 282 1.0 4.0 0.00 0.00 0.00 70 1017.2
20260510135559 88 251 1.0 4.0 0.00 0.00 0.00 70 1017.1
20260510135057 87 238 0.0 4.0 0.00 0.00 0.00 70 1017.2
20260510134605 87 0 0.0 7.0 0.00 0.00 0.00 71 1017.2
20260510134059 87 200 1.0 7.0 0.00 0.00 0.00 71 1017.2
20260510133557 87 209 0.0 6.0 0.00 0.00 0.00 73 1017.2
20260510133059 86 0 1.0 5.0 0.00 0.00 0.00 73 1017.3
20260510132557 86 242 0.0 7.0 0.00 0.00 0.00 75 1017.1
20260510132100 86 0 1.0 7.0 0.00 0.00 0.00 75 1017.2
20260510131605 85 0 1.0 7.0 0.00 0.00 0.00 76 1017.2
20260510131057 85 0 1.0 5.0 0.00 0.00 0.00 75 1017.2
20260510130558 85 0 0.0 2.0 0.00 0.00 0.00 77 1017.1
20260510130057 85 108 0.0 4.0 0.00 0.00 0.00 78 1017.2
20260510125557 84 0 0.0 4.0 0.00 0.00 0.00 79 1017.2
20260510125103 84 0 0.0 3.0 0.00 0.00 0.00 80 1017.2
20260510124606 83 0 0.0 3.0 0.00 0.00 0.00 81 1017.2
20260510124058 83 0 0.0 2.0 0.00 0.00 0.00 82 1017.1
20260510123558 82 0 0.0 3.0 0.00 0.00 0.00 82 1016.9
20260510123058 82 0 0.0 3.0 0.00 0.00 0.00 83 1016.8
20260510122557 82 0 0.0 4.0 0.00 0.00 0.00 84 1016.7
20260510122057 81 0 0.0 4.0 0.00 0.00 0.00 84 1016.7
20260510121607 81 198 0.0 2.0 0.00 0.00 0.00 85 1016.6
20260510121058 80 0 0.0 2.0 0.00 0.00 0.00 86 1016.6
20260510120557 80 69 0.0 0.0 0.00 0.00 0.00 86 1016.6
20260510115557 79 0 0.0 0.0 0.00 0.00 0.00 86 1016.4
20260510115058 79 0 0.0 0.0 0.00 0.00 0.00 87 1016.4
20260510114559 78 0 0.0 0.0 0.00 0.00 0.00 87 1016.3
20260510114058 78 0 0.0 0.0 0.00 0.00 0.00 87 1016.3
20260510113557 78 0 0.0 0.0 0.00 0.00 0.00 87 1016.2
20260510113101 78 0 0.0 0.0 0.00 0.00 0.00 87 1016.2
20260510112600 78 0 0.0 0.0 0.00 0.00 0.00 86 1016.1
20260510112058 77 0 0.0 0.0 0.00 0.00 0.00 86 1016.1
20260510111600 77 0 0.0 0.0 0.00 0.00 0.00 86 1016.0
20260510111057 77 0 0.0 0.0 0.00 0.00 0.00 86 1015.9
20260510110557 77 0 0.0 0.0 0.00 0.00 0.00 86 1015.9
20260510110059 77 0 0.0 0.0 0.00 0.00 0.00 86 1015.8
20260510105558 77 0 0.0 0.0 0.00 0.00 0.00 86 1015.7
20260510105101 77 0 0.0 0.0 0.00 0.00 0.00 86 1015.7
20260510104558 77 0 0.0 0.0 0.00 0.00 0.00 85 1015.7
20260510104059 77 0 0.0 0.0 0.00 0.00 0.00 85 1015.6
20260510103556 77 0 0.0 0.0 0.00 0.00 0.00 85 1015.6
20260510103104 77 0 0.0 0.0 0.00 0.00 0.00 85 1015.4
20260510102600 77 0 0.0 0.0 0.00 0.00 0.00 85 1015.4
20260510102100 77 0 0.0 0.0 0.00 0.00 0.00 85 1015.4
20260510101559 77 0 0.0 0.0 0.00 0.00 0.00 85 1015.3
20260510101058 77 0 0.0 0.0 0.00 0.00 0.00 85 1015.3
20260510100601 77 0 0.0 0.0 0.00 0.00 0.00 85 1015.3
20260510100116 77 0 0.0 0.0 0.00 0.00 0.00 85 1015.3
20260510095600 77 0 0.0 0.0 0.00 0.00 0.00 85 1015.4
20260510095104 77 0 0.0 0.0 0.00 0.00 0.00 85 1015.2
20260510094606 77 0 0.0 0.0 0.00 0.00 0.00 85 1015.3
20260510094103 77 0 0.0 0.0 0.00 0.00 0.00 85 1015.3
20260510093559 77 0 0.0 0.0 0.00 0.00 0.00 84 1015.3
20260510093101 77 0 0.0 0.0 0.00 0.00 0.00 84 1015.3
20260510092558 77 0 0.0 0.0 0.00 0.00 0.00 84 1015.3
20260510092057 77 0 0.0 0.0 0.00 0.00 0.00 84 1015.2
20260510091608 77 0 0.0 0.0 0.00 0.00 0.00 84 1015.1
20260510091057 77 0 0.0 0.0 0.00 0.00 0.00 84 1015.0
20260510090559 77 0 0.0 0.0 0.00 0.00 0.00 84 1015.0
20260510090105 77 0 0.0 0.0 0.00 0.00 0.00 84 1015.0
20260510085557 77 0 0.0 0.0 0.00 0.00 0.00 84 1014.9
20260510085101 78 0 0.0 0.0 0.00 0.00 0.00 83 1014.9
20260510084614 77 0 0.0 0.0 0.00 0.00 0.00 83 1014.9
20260510084104 78 0 0.0 0.0 0.00 0.00 0.00 83 1014.9
20260510083600 78 0 0.0 0.0 0.00 0.00 0.00 83 1014.9
20260510083113 78 0 0.0 0.0 0.00 0.00 0.00 83 1014.9
20260510082559 78 0 0.0 0.0 0.00 0.00 0.00 83 1014.9
20260510082100 78 0 0.0 0.0 0.00 0.00 0.00 83 1014.9
20260510081612 78 0 0.0 0.0 0.00 0.00 0.00 83 1014.9
20260510081059 78 0 0.0 0.0 0.00 0.00 0.00 83 1015.0
20260510080604 78 0 0.0 0.0 0.00 0.00 0.00 83 1014.9
20260510080112 78 0 0.0 0.0 0.00 0.00 0.00 83 1014.9
20260510075557 78 0 0.0 0.0 0.00 0.00 0.00 82 1015.0
20260510075100 78 0 0.0 0.0 0.00 0.00 0.00 82 1015.0
20260510074610 78 0 0.0 0.0 0.00 0.00 0.00 82 1015.0
20260510074101 78 0 0.0 0.0 0.00 0.00 0.00 82 1014.9
20260510073600 78 0 0.0 0.0 0.00 0.00 0.00 82 1015.0
20260510073107 78 0 0.0 0.0 0.00 0.00 0.00 82 1015.0
20260510072556 78 0 0.0 0.0 0.00 0.00 0.00 81 1015.0
20260510072102 78 0 0.0 0.0 0.00 0.00 0.00 81 1015.0
20260510071606 78 0 0.0 0.0 0.00 0.00 0.00 81 1015.0
20260510071100 78 0 0.0 0.0 0.00 0.00 0.00 81 1015.0
20260510070559 78 0 0.0 0.0 0.00 0.00 0.00 81 1015.0
20260510070058 78 0 0.0 0.0 0.00 0.00 0.00 81 1015.1
20260510065600 79 0 0.0 0.0 0.00 0.00 0.00 81 1015.0
20260510065100 79 0 0.0 0.0 0.00 0.00 0.00 81 1015.1
20260510064601 79 0 0.0 0.0 0.00 0.00 0.00 81 1015.2
20260510064059 79 0 0.0 0.0 0.00 0.00 0.00 81 1015.1
20260510063559 79 0 0.0 0.0 0.00 0.00 0.00 81 1015.1
20260510063057 79 0 0.0 0.0 0.00 0.00 0.00 81 1015.1
20260510062557 79 0 0.0 0.0 0.00 0.00 0.00 81 1015.2
20260510062059 79 0 0.0 0.0 0.00 0.00 0.00 81 1015.2
20260510061558 79 0 0.0 0.0 0.00 0.00 0.00 81 1015.2
20260510061059 79 0 0.0 0.0 0.00 0.00 0.00 80 1015.2
20260510060558 79 0 0.0 0.0 0.00 0.00 0.00 80 1015.3
20260510060058 79 0 0.0 0.0 0.00 0.00 0.00 80 1015.2
20260510055557 79 0 0.0 0.0 0.00 0.00 0.00 80 1015.3
20260510055059 79 0 0.0 0.0 0.00 0.00 0.00 80 1015.4
20260510054558 79 0 0.0 0.0 0.00 0.00 0.00 80 1015.3
20260510054057 79 0 0.0 0.0 0.00 0.00 0.00 80 1015.4
20260510053556 79 0 0.0 0.0 0.00 0.00 0.00 79 1015.4
20260510053107 79 0 0.0 0.0 0.00 0.00 0.00 79 1015.4
20260510052600 79 0 0.0 0.0 0.00 0.00 0.00 79 1015.5
20260510052100 79 0 0.0 0.0 0.00 0.00 0.00 79 1015.6
20260510051600 79 0 0.0 0.0 0.00 0.00 0.00 78 1015.6
20260510051057 79 0 0.0 0.0 0.00 0.00 0.00 78 1015.7
20260510050557 79 0 0.0 0.0 0.00 0.00 0.00 78 1015.8
20260510045559 80 0 0.0 0.0 0.00 0.00 0.00 78 1015.9
20260510045059 80 0 0.0 0.0 0.00 0.00 0.00 78 1015.9
20260510044600 80 0 0.0 0.0 0.00 0.00 0.00 77 1015.9
20260510044057 80 0 0.0 0.0 0.00 0.00 0.00 77 1015.9
20260510043557 80 0 0.0 0.0 0.00 0.00 0.00 77 1015.8
20260510043110 80 0 0.0 0.0 0.00 0.00 0.00 77 1015.9
20260510042558 80 0 0.0 0.0 0.00 0.00 0.00 76 1015.9
20260510042100 80 0 0.0 0.0 0.00 0.00 0.00 76 1015.9
20260510041558 80 0 0.0 0.0 0.00 0.00 0.00 75 1015.9
20260510041057 80 0 0.0 0.0 0.00 0.00 0.00 75 1016.0
20260510040558 80 0 0.0 0.0 0.00 0.00 0.00 75 1015.9
20260510040104 81 0 0.0 0.0 0.00 0.00 0.00 74 1015.9
20260510035558 81 0 0.0 0.0 0.00 0.00 0.00 74 1015.9
20260510035058 81 0 0.0 0.0 0.00 0.00 0.00 74 1015.9
20260510034600 81 0 0.0 0.0 0.00 0.00 0.00 74 1015.8
20260510034058 81 0 0.0 0.0 0.00 0.00 0.00 74 1015.9
20260510033557 81 0 0.0 0.0 0.00 0.00 0.00 74 1015.9
20260510033138 81 0 0.0 0.0 0.00 0.00 0.00 74 1015.9
20260510032558 81 0 0.0 0.0 0.00 0.00 0.00 74 1015.7
20260510032058 81 0 0.0 0.0 0.00 0.00 0.00 73 1015.7
20260510031622 81 0 0.0 0.0 0.00 0.00 0.00 73 1015.8
20260510031101 81 0 0.0 0.0 0.00 0.00 0.00 73 1015.8
20260510030558 81 0 0.0 0.0 0.00 0.00 0.00 73 1015.7
20260510025557 81 0 0.0 0.0 0.00 0.00 0.00 73 1015.7
20260510025057 81 0 0.0 0.0 0.00 0.00 0.00 73 1015.6
20260510024559 81 0 0.0 0.0 0.00 0.00 0.00 73 1015.6
20260510024057 81 0 0.0 0.0 0.00 0.00 0.00 73 1015.6
20260510023557 81 0 0.0 0.0 0.00 0.00 0.00 73 1015.5
20260510023059 81 0 0.0 0.0 0.00 0.00 0.00 72 1015.4
20260510022557 82 0 0.0 0.0 0.00 0.00 0.00 72 1015.4
20260510022101 82 0 0.0 1.0 0.00 0.00 0.00 72 1015.3
20260510021601 82 0 0.0 1.0 0.00 0.00 0.00 72 1015.2
20260510021057 82 0 0.0 1.0 0.00 0.00 0.00 72 1015.3
20260510020558 82 0 0.0 1.0 0.00 0.00 0.00 72 1015.2
20260510020058 82 0 0.0 1.0 0.00 0.00 0.00 71 1015.1
20260510015558 82 0 0.0 1.0 0.00 0.00 0.00 71 1015.0
20260510015057 82 0 0.0 2.0 0.00 0.00 0.00 71 1015.1
20260510014558 82 0 0.0 3.0 0.00 0.00 0.00 71 1015.1
20260510014057 82 0 0.0 4.0 0.00 0.00 0.00 71 1014.9
20260510013558 82 238 0.0 4.0 0.00 0.00 0.00 71 1014.9
20260510013058 82 0 0.0 4.0 0.00 0.00 0.00 71 1014.8
20260510012558 82 0 0.0 3.0 0.00 0.00 0.00 71 1014.7
20260510012058 82 0 0.0 3.0 0.00 0.00 0.00 71 1014.5
20260510011603 82 239 0.0 4.0 0.00 0.00 0.00 71 1014.6
20260510011059 82 349 0.0 4.0 0.00 0.00 0.00 71 1014.4
20260510010558 82 236 0.0 4.0 0.00 0.00 0.00 70 1014.4
20260510010109 82 0 0.0 7.0 0.00 0.00 0.00 70 1014.4
20260510005558 83 259 1.0 7.0 0.00 0.00 0.00 70 1014.3
20260510005058 83 0 0.0 4.0 0.00 0.00 0.00 70 1014.2
20260510004558 83 86 0.0 3.0 0.00 0.00 0.00 70 1014.2
20260510004058 83 0 0.0 3.0 0.00 0.00 0.00 70 1014.0
20260510003559 83 279 0.0 3.0 0.00 0.00 0.00 70 1013.8
20260510003057 83 28 0.0 3.0 0.00 0.00 0.00 70 1013.8
20260510002604 83 127 0.0 5.0 0.00 0.00 0.00 70 1013.7
20260510002101 83 161 0.0 5.0 0.00 0.00 0.00 70 1013.7
20260510001600 83 319 0.0 5.0 0.00 0.00 0.00 69 1013.7
20260510001101 84 334 0.0 7.0 0.00 0.00 0.00 69 1013.5
20260510000602 84 127 0.0 7.0 0.00 0.00 0.00 69 1013.5
20260510000107 84 0 1.0 7.0 0.00 0.00 0.00 68 1013.4
20260509235602 84 0 0.0 3.0 0.00 0.00 0.00 67 1013.1
20260509235100 84 0 1.0 4.0 0.00 0.00 0.00 67 1013.1
20260509234603 84 0 0.0 4.0 0.00 0.00 0.00 66 1013.1
20260509234101 84 0 0.0 3.0 0.00 0.00 0.00 66 1013.1
20260509233559 84 0 0.0 3.0 0.00 0.00 0.00 66 1013.2
20260509233100 84 257 0.0 4.0 0.00 0.00 0.00 66 1013.2
20260509232602 85 261 0.0 7.0 0.00 0.00 0.00 66 1013.1
20260509232102 85 0 1.0 7.0 0.00 0.00 0.00 66 1013.1
20260509231601 85 120 1.0 6.0 0.00 0.00 0.00 65 1013.1
20260509231101 85 0 1.0 7.0 0.00 0.00 0.00 66 1013.0
20260509230601 85 228 1.0 7.0 0.00 0.00 0.00 65 1012.9
20260509225602 86 0 0.0 6.0 0.00 0.00 0.00 66 1012.8
20260509225100 86 202 1.0 6.0 0.00 0.00 0.00 66 1012.8
20260509224559 87 176 1.0 4.0 0.00 0.00 0.00 67 1012.8
20260509224103 87 0 0.0 9.0 0.00 0.00 0.00 66 1012.8
20260509223602 87 264 1.0 9.0 0.00 0.00 0.00 64 1012.8
20260509223107 88 190 0.0 8.0 0.00 0.00 0.00 64 1012.8
20260509222601 88 0 1.0 8.0 0.00 0.00 0.00 64 1012.8
20260509222101 88 252 0.0 6.0 0.00 0.00 0.00 64 1012.7
20260509221601 89 197 1.0 6.0 0.00 0.00 0.00 63 1012.8
20260509221101 89 346 1.0 7.0 0.00 0.00 0.00 61 1012.7
20260509220601 90 186 1.0 7.0 0.00 0.00 0.00 62 1012.7
20260509215558 90 349 1.0 7.0 0.00 0.00 0.00 61 1012.8
20260509215058 90 231 1.0 7.0 0.00 0.00 0.00 62 1012.7
20260509214602 90 213 1.0 7.0 0.00 0.00 0.00 62 1012.5
20260509214102 90 153 1.0 7.0 0.00 0.00 0.00 62 1012.8
20260509213559 90 0 0.0 6.0 0.00 0.00 0.00 64 1012.5
20260509213100 90 0 1.0 7.0 0.00 0.00 0.00 63 1012.6
20260509212601 90 131 1.0 7.0 0.00 0.00 0.00 63 1012.8
20260509212100 91 202 1.0 6.0 0.00 0.00 0.00 64 1012.7
20260509211603 91 286 1.0 11.0 0.00 0.00 0.00 64 1012.6
20260509211103 91 236 2.0 11.0 0.00 0.00 0.00 64 1012.7
20260509210601 91 118 3.0 11.0 0.00 0.00 0.00 62 1012.7
20260509210108 92 153 2.0 10.0 0.00 0.00 0.00 62 1012.8
20260509205600 92 128 2.0 10.0 0.00 0.00 0.00 60 1012.7
20260509205100 93 255 2.0 10.0 0.00 0.00 0.00 60 1012.7
20260509204602 93 98 1.0 10.0 0.00 0.00 0.00 60 1012.7
20260509204101 94 0 2.0 10.0 0.00 0.00 0.00 59 1012.8
20260509203603 94 128 1.0 8.0 0.00 0.00 0.00 58 1012.8
20260509203100 94 218 1.0 8.0 0.00 0.00 0.00 58 1012.9
20260509202602 94 159 1.0 8.0 0.00 0.00 0.00 55 1013.0
20260509202101 94 287 1.0 7.0 0.00 0.00 0.00 57 1013.0
20260509201609 93 232 1.0 8.0 0.00 0.00 0.00 52 1013.0
20260509201101 93 233 2.0 8.0 0.00 0.00 0.00 56 1013.1
20260509200601 93 113 1.0 6.0 0.00 0.00 0.00 58 1013.1
20260509200109 93 225 2.0 7.0 0.00 0.00 0.00 59 1013.1
20260509195604 93 209 1.0 8.0 0.00 0.00 0.00 60 1013.2
20260509195101 93 111 2.0 9.0 0.00 0.00 0.00 60 1013.2
20260509194605 93 65 2.0 9.0 0.00 0.00 0.00 60 1013.2
20260509194101 93 236 3.0 9.0 0.00 0.00 0.00 59 1013.2
20260509193601 94 190 2.0 9.0 0.00 0.00 0.00 58 1013.2
20260509193102 94 138 2.0 9.0 0.00 0.00 0.00 59 1013.2
20260509192602 94 153 2.0 9.0 0.00 0.00 0.00 59 1013.2
20260509192058 94 117 1.0 8.0 0.00 0.00 0.00 59 1013.3
20260509191559 94 103 1.0 8.0 0.00 0.00 0.00 59 1013.3
20260509191100 94 0 1.0 7.0 0.00 0.00 0.00 60 1013.4
20260509190601 93 136 1.0 7.0 0.00 0.00 0.00 60 1013.4
20260509190101 93 278 1.0 7.0 0.00 0.00 0.00 61 1013.4
20260509185601 94 207 1.0 8.0 0.00 0.00 0.00 60 1013.7
20260509185101 94 240 2.0 11.0 0.00 0.00 0.00 59 1013.7
20260509184608 94 254 2.0 11.0 0.00 0.00 0.00 57 1013.7
20260509184102 95 51 1.0 4.0 0.00 0.00 0.00 58 1013.7
20260509183601 95 0 1.0 7.0 0.00 0.00 0.00 58 1013.8
20260509183059 94 0 2.0 8.0 0.00 0.00 0.00 57 1013.8
20260509182601 95 156 1.0 8.0 0.00 0.00 0.00 57 1013.9
20260509182100 94 240 1.0 9.0 0.00 0.00 0.00 58 1013.9
20260509181622 94 327 1.0 9.0 0.00 0.00 0.00 56 1014.0
20260509181059 95 150 2.0 11.0 0.00 0.00 0.00 56 1014.1
20260509180558 95 0 1.0 12.0 0.00 0.00 0.00 55 1014.1
20260509180059 95 160 1.0 12.0 0.00 0.00 0.00 55 1014.1
20260509175600 95 0 1.0 6.0 0.00 0.00 0.00 56 1014.3
20260509175058 95 0 1.0 8.0 0.00 0.00 0.00 55 1014.3
20260509174602 94 0 2.0 8.0 0.00 0.00 0.00 52 1014.4
20260509174100 95 227 1.0 7.0 0.00 0.00 0.00 53 1014.5
20260509173557 95 166 1.0 8.0 0.00 0.00 0.00 56 1014.4
20260509173105 94 217 2.0 8.0 0.00 0.00 0.00 53 1014.4
20260509172557 94 0 1.0 8.0 0.00 0.00 0.00 53 1014.5
20260509172100 94 198 1.0 8.0 0.00 0.00 0.00 61 1014.6
20260509171558 94 292 1.0 7.0 0.00 0.00 0.00 61 1014.5
20260509171057 94 99 1.0 7.0 0.00 0.00 0.00 53 1014.6
20260509170557 94 209 1.0 12.0 0.00 0.00 0.00 53 1014.5
20260509170059 94 0 0.0 12.0 0.00 0.00 0.00 54 1014.5
20260509165557 93 86 2.0 12.0 0.00 0.00 0.00 54 1014.6
20260509165100 93 271 1.0 11.0 0.00 0.00 0.00 56 1014.7
20260509164557 93 0 2.0 11.0 0.00 0.00 0.00 54 1014.8
20260509164057 93 245 1.0 7.0 0.00 0.00 0.00 55 1014.9
20260509163602 93 0 2.0 9.0 0.00 0.00 0.00 56 1014.9
20260509163059 93 292 1.0 9.0 0.00 0.00 0.00 58 1015.0
20260509162559 93 249 1.0 9.0 0.00 0.00 0.00 61 1015.1
20260509162102 93 121 2.0 6.0 0.00 0.00 0.00 62 1015.1
20260509161603 93 200 1.0 6.0 0.00 0.00 0.00 62 1015.0
20260509161058 93 154 1.0 6.0 0.00 0.00 0.00 62 1015.0
20260509160602 93 0 1.0 6.0 0.00 0.00 0.00 61 1015.1
20260509160057 92 0 1.0 7.0 0.00 0.00 0.00 61 1015.1
20260509155557 91 244 1.0 9.0 0.00 0.00 0.00 61 1015.1
20260509155057 91 268 2.0 9.0 0.00 0.00 0.00 62 1015.3
20260509154559 91 180 1.0 4.0 0.00 0.00 0.00 63 1015.2
20260509154058 91 170 0.0 6.0 0.00 0.00 0.00 65 1015.1
20260509153558 90 0 0.0 6.0 0.00 0.00 0.00 65 1015.2